Regional Weather Roundup
Issued by NWS Huntsville, AL

Home | Current Version | Previous Version | Text Only | Print | Product List | Glossary On
Versions: 1 2 3 4 5 6 7 8 9 10 11 12 13 14 15 16 17 18 19 20 21 22 23 24 25 26 27 28 29 30 31 32 33 34 35 36 37 38 39 40 41 42 43 44 45 46 47 48 49 50
000
ASUS44 KHUN 091410
RWRHUN

WEATHER ROUNDUP FOR THE TENNESSEE VALLEY
NATIONAL WEATHER SERVICE HUNTSVILLE AL
800 AM CST TUE FEB 09 2016

ALZ001>004-091500-
NORTHWEST ALABAMA

CITY           SKY/WX    TMP DP  RH WIND       PRES   REMARKS
COURTLAND HCN    N/A     28 N/A N/A NW7         N/A  WCI  21
RUSSELLVILLE     N/A     30 N/A N/A MISG        N/A
SHOALS AIRPORT CLOUDY    30  22  72 NW6       29.94R WCI  24
SHOALS TVA RES   N/A     28 N/A N/A MISG        N/A
$$

ALZ005>007-016-091500-
NORTH CENTRAL ALABAMA

CITY           SKY/WX    TMP DP  RH WIND       PRES   REMARKS
CULLMAN AG STN   N/A     32 N/A N/A W10         N/A  WCI  24
DECATUR AP     LGT SNOW  27  25  92 NW15      29.92R VSB 1   WCI  15
HUNTSVILLE AP  SNOW      29  24  82 W12       29.91R VSB 1/2 WCI  19
MERIDIANVILLE  LGT SNOW  28  23  80 W9G16     29.90R WCI  20
REDSTONE ARSN  LGT SNOW  29  24  83 NW7       29.90R VSB 5/8 WCI  22
VINEMONT AP    FLURRIES  30  17  59 W7G18     29.91R WCI  23
$$

ALZ008>010-091500-
NORTHEAST ALABAMA

CITY           SKY/WX    TMP DP  RH WIND       PRES   REMARKS
ALBERTVILLE    FLURRIES  30  28  93 W14       29.86S WCI  20
FORT PAYNE     LGT SNOW  30  23  74 W5        29.86S WCI  25
SCOTTSBORO AP  LGT SNOW  28  27  93 W3        29.89S
SCOTTSBORO HCN   N/A     28 N/A N/A MISG        N/A
VALLEY HEAD      N/A     28 N/A N/A MISG        N/A
$$

TNZ076-096-097-091500-
SOUTHEASTERN MIDDLE TENNESSEE

CITY           SKY/WX    TMP DP  RH WIND       PRES   REMARKS
TULLAHOMA      CLOUDY    25  25 100 W9        29.86R WCI  15
WINCHESTER     CLOUDY    25  23  93 NW3       29.86R
$$

...SURROUNDING SITES...

CITY           SKY/WX    TMP DP  RH WIND       PRES   REMARKS
ATLANTA        CLOUDY    33  19  56 W14G22    29.84S WCI  23
ANNISTON       CLOUDY    35  18  49 W14       29.90S WCI  26
BIRMINGHAM     CLOUDY    34  19  54 W9        29.94R WCI  27
CHATTANOOGA    LGT SNOW  28  21  75 N5        29.87S FOG     WCI  23
DALTON         NOT AVBL
GADSDEN        CLOUDY    34  19  54 W13       29.91R WCI  25
GOLDEN TRNGL   SUNNY     34  16  47 W12       29.99R WCI  25
HALEYVILLE     CLOUDY    30  17  58 NW14G20   29.93R WCI  19
JACKSON TN     FLURRIES  26  19  74 NW7       29.96R WCI  18
MEMPHIS        MOSUNNY   33  16  49 NW14      29.99R WCI  23
NASHVILLE      LGT SNOW  26  19  74 VRB6      29.90R WCI  19
OXFORD MS      FAIR      32  14  47 W15G23    30.01S WCI  22
ROME           LGT SNOW  30  26  85 NW5       29.87S VSB 3/4 WCI  25
TUPELO         CLOUDY    34  16  47 W6        29.98R WCI  29
TUSCALOOSA     CLOUDY    35  19  52 W12G22    29.99R WCI  27
$$

...GULF COAST WEATHER...

CITY           SKY/WX    TMP DP  RH WIND       PRES   REMARKS
GULFPORT       SUNNY     40  20  44 W8        30.14R WCI  34
PASCAGOULA     SUNNY     40  21  46 W6        30.13R
MOBILE         SUNNY     38  21  50 W10G18    30.11R WCI  31
GULF SHORES    MOSUNNY   42  23  46 NW14G21   30.10R
DESTIN         SUNNY     47  25  42 VRB6      30.07S
PANAMA CITY    SUNNY     47  24  41 NW15      30.05S
APPALACHICOLA  SUNNY     46  24  42 NW8       30.06R
$$




USA.gov is the U.S. government's official web portal to all federal, state and local government web resources and services.